Location: Huntsville
(34.7300°N, 86.5860°W)
Time: 02:00:21
(UTC-05:00)

Daily predictions for brighter satellites

Satellite Brightness Start Highest point End
(mag) Time Altitude Azimuth Time Altitude Azimuth Time Altitude Azimuth
ATLAS 3B R/B 4.4 01:10:14 31° NNE 01:10:14 31° NNE 01:13:49 10° NNE
Cosmos 2369 Rocket 4.2 02:21:10 10° N 02:24:37 23° NE 02:24:37 23° NE
CENTAUR R/B 4.5 02:32:55 18° E 02:32:55 18° E 02:36:03 10° ENE
Resurs 1-4 Rocket 4.3 02:31:24 10° NE 02:33:45 19° ENE 02:33:45 19° ENE
CZ-4C R/B 4.3 03:06:22 18° NNW 03:06:22 18° NNW 03:09:13 10° N
Cosmos 839 Rocket 4.5 02:58:10 10° NNW 03:06:05 68° ENE 03:06:15 67° ENE
ATLAS 5 CENTAUR R/B 3.4 03:15:16 34° NE 03:15:16 34° NE 03:18:11 10° NE
SL-16 R/B 2.6 03:23:32 70° ENE 03:23:32 70° ENE 03:29:42 10° N
IRS-1D 4.3 03:34:07 10° N 03:37:54 47° N 03:37:54 47° N
Cosmos 1709 Rocket 3.9 03:35:06 10° N 03:41:28 89° E 03:41:39 85° SSE
SeaSat 1 4.4 03:40:15 10° ESE 03:44:25 28° ENE 03:48:36 10° N
CZ-2D R/B 2.4 03:39:36 10° N 03:43:49 57° N 03:43:49 57° N
ARIANE 5 R/B 3.4 03:41:49 10° N 03:45:27 41° NNW 03:45:27 41° NNW
Cosmos 1733 Rocket 4.0 03:44:25 10° N 03:47:36 44° NNE 03:47:36 44° NNE
USA 234 3.4 03:43:27 10° NE 03:49:49 55° NW 03:50:41 52° WNW
Cosmos 1943 4.4 03:56:53 28° NW 03:56:53 28° NW 04:00:48 10° N
COSMOS 2406 3.5 03:58:37 50° SSE 03:59:54 64° ESE 04:05:35 10° NNE
CZ-4B R/B 4.4 03:58:27 10° NE 04:01:42 28° E 04:02:24 26° ESE
Atlas Centaur 2 3.3 04:04:52 21° SE 04:04:52 21° SE 04:07:41 10° ESE
Cosmos 1174 4.4 04:07:43 66° S 04:08:27 81° ESE 04:13:10 10° NNE
Cosmos 2184 Rocket 4.5 04:03:02 10° N 04:09:21 61° E 04:15:35 10° SSE
Cosmos 2369 Rocket 3.8 04:04:33 10° NW 04:06:18 20° NW 04:06:18 20° NW
Cosmos 1455 4.2 04:12:01 20° NNW 04:12:01 20° NNW 04:13:30 10° N
CZ-2D R/B 3.8 04:09:50 10° N 04:13:35 58° NNW 04:13:35 58° NNW
MOS 1-B 4.3 04:09:04 10° N 04:14:44 59° WNW 04:15:33 54° WSW
Resurs 1-4 Rocket 2.8 04:10:33 10° N 04:14:50 36° WNW 04:14:50 36° WNW
CZ-4B R/B 3.5 04:11:26 10° NNE 04:16:40 60° ESE 04:19:40 25° S
CZ-3 R/B 4.3 03:19:30 10° W 04:17:07 59° SSW 04:29:00 10° SE
Cosmos 1908 Rocket 4.1 04:14:13 10° N 04:18:32 57° E 04:21:54 16° SSE
OAO 3 Copernicus 4.2 04:19:46 64° SSW 04:19:57 65° SSW 04:24:57 10° ESE
CENTAUR R/B 2.6 04:20:07 47° WSW 04:21:34 58° NW 04:28:13 10° NNE
Cosmos 2221 Rocket 4.1 04:20:58 28° SSE 04:23:05 57° E 04:27:25 10° NNE
Okean O Rocket 1.5 04:20:42 10° N 04:25:10 84° WNW 04:26:03 58° SSW
SL-27 R/B 3.6 04:27:08 35° NNW 04:27:08 35° NNW 04:29:38 10° N
ADEOS II 3.8 04:23:21 10° NE 04:28:01 31° E 04:32:38 10° SSE
Cosmos 1943 Rocket 2.0 04:23:14 10° NNW 04:28:53 72° WSW 04:34:27 10° SSE
ARGOS Delta rocket 3.6 04:24:54 10° N 04:29:12 56° WNW 04:29:24 55° W
USA 32 4.2 04:25:48 17° S 04:29:48 72° E 04:35:02 10° N
PSLV R/B 3.7 04:27:29 10° N 04:31:08 64° WNW 04:31:08 64° WNW
Okean-O 4.2 04:28:08 10° NNE 04:32:09 33° E 04:36:09 10° SSE
Cosmos 1703 Rocket 3.5 04:30:58 36° S 04:32:46 85° E 04:37:16 10° N
Cosmos 1408 2.7 04:30:39 10° N 04:34:24 78° E 04:36:27 26° SSE
Cosmos 2285 Rocket 4.0 04:34:17 10° NNW 04:40:45 86° ENE 04:47:07 10° SSE
Sich 1 Rocket 3.5 04:36:29 10° NNW 04:40:48 59° W 04:42:28 35° SSW
IRS-1C Rocket 4.3 04:42:45 10° N 04:47:50 50° WNW 04:50:11 29° SW
Cosmos 1825 2.1 04:44:42 10° NNW 04:48:28 64° W 04:50:26 26° S
PAYLOAD B 4.3 04:48:22 10° N 04:53:47 57° WNW 04:57:25 21° SW
PSLV R/B 3.8 04:50:59 10° NNE 04:55:23 72° E 04:59:45 10° S
Cosmos 1656 Rocket 3.5 04:52:38 10° NNW 04:58:05 89° WSW 05:03:29 10° SSE
ATLAS 5 CENTAUR R/B 3.8 04:56:50 13° WNW 04:58:26 15° NW 05:01:20 10° N
Okean 1-7 3.0 05:03:33 15° SSW 05:07:03 60° W 05:11:21 10° N
SL-16 R/B 4.1 05:08:38 14° W 05:08:38 14° W 05:10:54 10° WNW
Cosmos 407 Rocket 3.5 05:04:14 15° SSW 05:08:32 67° WNW 05:13:46 10° NNE
Cosmos 1862 4.3 05:11:25 10° NNW 05:14:46 26° W 05:16:44 18° SW
CZ-2C R/B 4.4 05:12:02 10° SSW 05:15:53 29° W 05:19:45 10° NW
Okean 2 Rocket 3.1 05:12:14 10° NNW 05:16:43 64° W 05:21:10 10° S
BREEZE M DEB (TANK) 4.2 05:16:40 10° SSE 05:18:13 15° ESE 05:20:25 10° ENE
Meteor 1-26 Rocket 4.4 05:13:28 10° SSW 05:19:08 55° W 05:24:55 10° N
SeaSat 1 3.1 05:17:26 10° S 05:21:48 32° WSW 05:26:12 10° NW
Feng Yun 1-1 Rocket 4.2 05:21:41 10° N 05:27:02 71° WNW 05:32:27 10° SSW
Cosmos 1140 Rocket 3.8 05:23:03 10° S 05:28:06 67° ESE 05:33:12 10° NNE
Cosmos 1674 Rocket 4.3 05:28:01 10° S 05:32:23 59° E 05:36:45 10° NNE
Meteor 1-14 Rocket 4.3 05:28:32 10° NNW 05:34:19 63° W 05:40:10 10° S
Cosmos 2181 Rocket 4.1 05:28:37 10° SSW 05:35:01 68° W 05:41:25 10° N
GPS 2-05 Rocket1 2.7 05:32:54 14° WSW 05:35:46 87° S 05:39:02 10° E
Cosmos 1782 Rocket 4.4 05:32:03 10° NNW 05:35:46 28° W 05:39:28 10° SSW
Geosat 4.5 05:32:01 10° N 05:36:46 44° WNW 05:41:30 10° SW
MOS 1 Rocket 3.1 05:38:13 10° NNE 05:42:30 86° ESE 05:46:49 10° S
Ariane Rocket 3.8 05:38:48 10° NNE 05:43:48 57° E 05:48:47 10° S
COSMOS 2487 4.0 05:41:16 10° WSW 05:43:58 20° WNW 05:46:43 10° NNW
Meteor PRIRODA 4.4 05:43:07 10° N 05:46:33 35° WNW 05:50:00 10° SW
Cosmos 614 Rocket 4.4 05:42:12 10° S 05:47:15 66° ESE 05:52:18 10° NNE
NOAA 6 4.1 05:46:55 10° N 05:52:05 81° WNW 05:57:15 10° SSW
Cosmos 1782 2.8 05:48:09 10° SSW 05:52:08 67° W 05:56:10 10° N
Atlas Centaur 2 2.4 05:47:55 10° WSW 05:52:18 50° S 05:57:51 10° E
Cosmos 2369 4.4 05:46:57 10° NNW 05:52:38 61° ENE 05:58:17 10° SSE
Cosmos 1295 Rocket 4.5 05:46:46 10° NNW 05:52:50 69° W 05:58:57 10° S
Meteor 1-27 Rocket 4.5 05:48:07 10° S 05:53:35 59° E 05:59:01 10° NNE
Meteor 1-10 Rocket 4.3 05:49:09 10° SSW 05:55:00 75° W 06:00:46 10° N
Cosmos 1300 Rocket 4.4 05:51:24 10° N 05:55:39 57° E 05:59:53 10° SSE
COSMO-SKYMED 1 3.4 05:51:30 10° SSE 05:55:45 59° ENE 06:00:02 10° N
